Location: Balsareny
(41.8670°N, 1.8830°E)
Time: 19:50:34
(UTC+02:00)

Tiangong - Pass Details

Date: 02 July 2021
Orbit: 374 x 386 km, 41.5° (Epoch: 25 July)

Event Time Altitude Azimuth Distance (km) Brightness Sun altitude
Rises 23:33:57 0° 238° (WSW) 2,218 5.0 -17.2°
Reaches altitude 10° 23:36:04 10° 230° (SW) 1,369 3.8 -17.5°
Enters shadow 23:36:30 13° 227° (SW) 1,207 3.5 -17.5°
